Total_Precipitation_Accumulation
0.38 0.46 0.44 0.48 0.45 0.56 0.73 0.78 0.74 0.88 0.99 0.93 0.81 0.73 0.71 0.67 0.58 0.63 0.62 0.51 0.48 0.57 0.78 0.84 0.76 0.72 0.73 0.63 0.59 0.62 0.65 0.63 0.60 0.50 0.39 0.36 0.43 0.49 0.45 0.37 0.32 0.28 0.28
0.68 0.77 0.75 0.75 0.69 0.75 0.86 0.92 0.93 1.24 1.18 1.14 0.94 0.85 0.81 0.76 0.68 0.61 0.56 0.56 0.49 0.45 0.54 0.70 0.80 0.78 0.77 0.73 0.66 0.63 0.62 0.59 0.52 0.40 0.32 0.30 0.38 0.48 0.48 0.43 0.35 0.28 0.21
1.01 1.08 1.08 1.01 1.04 1.03 1.13 1.14 1.26 1.40 1.14 1.08 0.94 0.91 0.81 0.72 0.60 0.56 0.58 0.60 0.55 0.47 0.38 0.45 0.61 0.70 0.78 0.85 0.85 0.77 0.63 0.55 0.51 0.39 0.29 0.27 0.33 0.42 0.43 0.44 0.40 0.31 0.21
1.34 1.40 1.25 1.18 1.40 1.46 1.46 1.52 1.57 1.54 1.41 1.30 1.10 0.88 0.74 0.70 0.49 0.40 0.39 0.40 0.43 0.36 0.34 0.43 0.53 0.59 0.73 0.85 0.95 0.94 0.84 0.68 0.59 0.50 0.38 0.32 0.36 0.41 0.38 0.38 0.38 0.30 0.22
1.39 1.51 1.35 1.39 1.57 1.63 1.64 1.52 1.70 1.63 1.57 1.48 1.20 0.94 0.70 0.55 0.42 0.31 0.24 0.21 0.26 0.27 0.25 0.30 0.35 0.41 0.62 0.84 0.93 0.98 0.98 0.91 0.78 0.67 0.59 0.51 0.46 0.42 0.39 0.38 0.36 0.32 0.25
1.50 1.63 1.49 1.54 1.69 1.74 1.66 1.66 1.69 1.68 1.57 1.51 1.17 0.85 0.66 0.46 0.33 0.25 0.19 0.16 0.15 0.16 0.18 0.22 0.33 0.33 0.47 0.65 0.73 0.86 0.98 0.98 0.89 0.82 0.78 0.74 0.69 0.60 0.49 0.45 0.45 0.41 0.33
1.58 1.68 1.53 1.61 1.65 1.58 1.59 1.72 1.78 1.58 1.40 1.56 1.31 0.79 0.49 0.35 0.29 0.26 0.26 0.25 0.19 0.17 0.18 0.22 0.28 0.35 0.42 0.46 0.52 0.62 0.87 1.02 0.98 0.88 0.82 0.82 0.90 0.93 0.71 0.65 0.65 0.58 0.49
1.56 1.51 1.46 1.41 1.41 1.48 1.51 1.57 1.74 1.52 1.20 1.38 1.34 1.07 0.59 0.43 0.37 0.28 0.30 0.30 0.25 0.23 0.23 0.25 0.31 0.43 0.45 0.53 0.57 0.47 0.69 0.99 1.06 1.06 0.97 0.92 1.01 1.08 0.92 0.92 0.85 0.72 0.62
1.38 1.34 1.31 1.38 1.52 1.56 1.44 1.44 1.51 1.44 1.17 1.16 1.29 1.32 0.90 0.62 0.45 0.23 0.24 0.28 0.36 0.41 0.37 0.38 0.39 0.46 0.51 0.60 0.76 0.72 0.55 0.66 0.82 1.06 1.13 1.07 1.02 1.01 1.11 1.19 1.10 0.89 0.70
1.30 1.26 1.26 1.26 1.26 1.25 1.21 1.13 1.22 1.32 1.27 1.10 1.20 1.25 1.17 1.03 0.82 0.45 0.32 0.34 0.45 0.50 0.50 0.46 0.40 0.41 0.53 0.73 0.91 0.96 0.84 0.71 0.66 0.87 1.11 1.20 1.09 1.00 1.14 1.33 1.44 1.22 0.83
1.21 1.20 1.13 1.09 1.02 1.01 1.05 1.05 1.09 1.13 1.15 1.11 1.11 1.17 1.18 1.18 1.18 0.98 0.63 0.59 0.59 0.51 0.54 0.51 0.47 0.47 0.57 0.72 0.84 0.89 0.98 0.86 0.81 0.76 0.78 0.91 0.99 0.98 1.03 1.25 1.60 1.64 1.33
0.99 0.98 0.99 0.99 0.95 0.97 1.01 1.02 1.01 0.95 0.99 1.03 1.08 1.14 1.15 1.14 1.21 1.27 1.00 0.85 0.73 0.60 0.62 0.56 0.52 0.54 0.61 0.69 0.66 0.78 0.76 0.72 0.71 0.74 0.71 0.78 0.79 0.83 0.92 1.13 1.45 1.72 1.75
0.71 0.74 0.74 0.83 0.86 0.94 0.94 0.90 0.92 0.94 1.01 1.03 1.05 1.10 1.13 1.08 1.09 1.15 1.13 0.95 0.84 0.73 0.72 0.69 0.59 0.58 0.56 0.66 0.63 0.54 0.43 0.38 0.39 0.42 0.43 0.50 0.57 0.64 0.76 0.89 1.09 1.33 1.57
0.55 0.59 0.68 0.80 0.88 0.92 0.93 0.93 0.90 0.92 0.99 1.04 1.07 1.15 1.06 0.96 0.99 1.06 1.12 1.09 0.93 0.83 0.87 0.75 0.65 0.58 0.57 0.59 0.52 0.39 0.32 0.24 0.24 0.23 0.20 0.23 0.29 0.37 0.50 0.65 0.81 0.92 1.05
0.53 0.57 0.65 0.75 0.88 0.99 1.01 0.98 0.97 1.03 1.15 1.19 1.26 1.24 1.11 1.01 1.01 1.05 1.16 1.21 1.10 0.90 0.82 0.82 0.70 0.57 0.54 0.48 0.39 0.38 0.38 0.29 0.20 0.16 0.12 0.13 0.17 0.21 0.29 0.41 0.55 0.68 0.76
0.49 0.54 0.61 0.68 0.71 0.76 0.81 0.81 0.90 1.00 1.12 1.16 1.14 1.14 1.12 1.09 1.12 1.08 1.15 1.22 1.22 1.09 0.82 0.83 0.79 0.59 0.60 0.41 0.36 0.35 0.32 0.26 0.19 0.14 0.11 0.12 0.14 0.18 0.21 0.27 0.37 0.48 0.59
0.42 0.47 0.52 0.52 0.53 0.53 0.56 0.61 0.72 0.85 0.92 0.91 0.86 0.87 0.87 0.89 0.92 0.92 0.96 1.00 1.08 1.09 0.84 0.82 0.98 0.84 0.75 0.59 0.47 0.43 0.29 0.23 0.23 0.18 0.13 0.11 0.11 0.15 0.20 0.23 0.26 0.32 0.41
0.36 0.39 0.41 0.42 0.41 0.43 0.50 0.56 0.64 0.72 0.78 0.77 0.75 0.73 0.69 0.72 0.78 0.76 0.80 0.87 0.96 1.08 0.97 0.83 0.91 0.95 0.89 0.72 0.62 0.54 0.40 0.28 0.29 0.26 0.17 0.13 0.12 0.13 0.19 0.23 0.23 0.25 0.29
0.29 0.31 0.35 0.39 0.42 0.49 0.59 0.69 0.76 0.74 0.66 0.60 0.55 0.51 0.50 0.54 0.61 0.64 0.69 0.73 0.79 1.01 1.03 0.91 0.87 1.01 0.99 0.82 0.80 0.66 0.59 0.57 0.41 0.34 0.22 0.16 0.17 0.17 0.20 0.25 0.26 0.26 0.26
0.30 0.36 0.41 0.47 0.54 0.58 0.61 0.65 0.67 0.69 0.64 0.54 0.43 0.36 0.34 0.41 0.51 0.56 0.60 0.63 0.65 0.73 0.84 0.88 0.88 0.96 0.97 0.82 0.89 0.84 0.76 0.71 0.62 0.48 0.39 0.25 0.20 0.23 0.25 0.26 0.28 0.31 0.33
0.26 0.38 0.45 0.50 0.58 0.56 0.53 0.53 0.50 0.45 0.45 0.45 0.39 0.30 0.28 0.31 0.36 0.43 0.47 0.52 0.55 0.58 0.63 0.71 0.79 0.87 0.97 0.86 0.77 0.81 0.79 0.78 0.77 0.77 0.79 0.54 0.32 0.27 0.28 0.30 0.33 0.39 0.46
0.22 0.29 0.32 0.37 0.42 0.39 0.34 0.31 0.32 0.32 0.31 0.32 0.33 0.29 0.25 0.24 0.26 0.30 0.34 0.37 0.38 0.39 0.45 0.54 0.61 0.69 0.80 0.83 0.75 0.77 0.79 0.78 0.83 0.86 0.96 1.03 0.78 0.58 0.48 0.33 0.30 0.37 0.49
0.25 0.28 0.27 0.26 0.28 0.31 0.26 0.22 0.21 0.23 0.27 0.27 0.27 0.24 0.19 0.18 0.18 0.17 0.19 0.22 0.27 0.26 0.27 0.38 0.40 0.39 0.47 0.51 0.58 0.73 0.85 0.87 0.94 1.04 1.06 1.21 1.34 1.15 0.78 0.52 0.40 0.33 0.41
0.35 0.36 0.30 0.27 0.26 0.25 0.21 0.18 0.18 0.19 0.24 0.27 0.27 0.22 0.18 0.15 0.15 0.15 0.17 0.19 0.18 0.16 0.14 0.16 0.19 0.23 0.30 0.35 0.37 0.42 0.61 0.86 0.97 1.08 1.15 1.34 1.53 1.78 1.41 0.93 0.69 0.51 0.48
0.39 0.39 0.33 0.30 0.29 0.26 0.21 0.17 0.20 0.25 0.30 0.31 0.31 0.26 0.21 0.17 0.16 0.14 0.16 0.17 0.15 0.14 0.13 0.14 0.17 0.20 0.24 0.28 0.30 0.32 0.34 0.43 0.67 1.02 1.20 1.40 1.55 1.73 2.08 1.72 1.08 0.69 0.51
0.41 0.37 0.35 0.38 0.38 0.35 0.27 0.21 0.20 0.25 0.31 0.33 0.39 0.35 0.27 0.21 0.19 0.17 0.16 0.15 0.14 0.12 0.11 0.12 0.16 0.18 0.18 0.21 0.23 0.23 0.22 0.24 0.32 0.56 0.77 0.89 1.06 1.25 1.76 2.13 1.83 1.23 0.81